OAL96 LGRP-LGKJ

Flight info

Callsign OAL96
Flight time 0h 22m
Altitude 7000
Route LAKAD M601 EXELA
Aircraft AT46/M-SDFGIRY/S

Departure

Time 2026-04-14 03:01
Airport Rhodes International Airport "Diagoras" (LGRP)

Arrival

Time 2026-04-14 03:23
Airport Kastelorizo Airport (LGKJ)
Time Latitude Longitude Altitude Speed Heading
2026-04-14 02:37 36.40495 28.09108 25 ft 0 kts 306°
2026-04-14 02:59 36.40520 28.09074 27 ft 7 kts 357°
2026-04-14 03:00 36.40576 28.09106 27 ft 16 kts 27°
2026-04-14 03:00 36.40650 28.09138 27 ft 9 kts 359°
2026-04-14 03:00 36.40692 28.09091 27 ft 8 kts 261°
2026-04-14 03:00 36.40643 28.08978 29 ft 44 kts 251°
2026-04-14 03:01 36.40444 28.08310 35 ft 120 kts 249°
2026-04-14 03:01 36.40123 28.07283 648 ft 134 kts 248°
2026-04-14 03:01 36.39765 28.06125 1318 ft 149 kts 248°
2026-04-14 03:01 36.39561 28.04824 2009 ft 162 kts 273°
2026-04-14 03:02 36.39826 28.03551 2868 ft 151 kts 297°
2026-04-14 03:02 36.40672 28.02773 3343 ft 159 kts 349°
2026-04-14 03:02 36.41723 28.03145 3771 ft 171 kts 40°
2026-04-14 03:02 36.42462 28.04362 4137 ft 184 kts 70°
2026-04-14 03:03 36.42675 28.05915 4784 ft 179 kts 94°
2026-04-14 03:03 36.42357 28.07439 5256 ft 187 kts 115°
2026-04-14 03:03 36.41748 28.08862 5875 ft 185 kts 122°
2026-04-14 03:03 36.41096 28.10224 6484 ft 184 kts 123°
2026-04-14 03:04 36.40409 28.11588 6957 ft 189 kts 123°
2026-04-14 03:04 36.39664 28.13060 7086 ft 215 kts 123°
2026-04-14 03:04 36.38841 28.14741 7125 ft 239 kts 121°
2026-04-14 03:04 36.37993 28.16609 7148 ft 256 kts 120°
2026-04-14 03:05 36.37130 28.18600 7148 ft 268 kts 119°
2026-04-14 03:05 36.36224 28.20665 7156 ft 276 kts 120°
2026-04-14 03:05 36.35292 28.22766 7151 ft 281 kts 120°
2026-04-14 03:05 36.34348 28.24900 7158 ft 282 kts 120°
2026-04-14 03:06 36.33408 28.27013 7155 ft 278 kts 120°
2026-04-14 03:06 36.32472 28.29108 7154 ft 279 kts 120°
2026-04-14 03:06 36.31535 28.31219 7156 ft 279 kts 120°
2026-04-14 03:06 36.30595 28.33328 7157 ft 280 kts 120°
2026-04-14 03:07 36.29652 28.35443 7161 ft 280 kts 120°
2026-04-14 03:07 36.28727 28.37520 7159 ft 277 kts 120°
2026-04-14 03:07 36.27793 28.39622 7160 ft 274 kts 120°
2026-04-14 03:07 36.26864 28.41699 7167 ft 277 kts 120°
2026-04-14 03:08 36.25926 28.43804 7165 ft 281 kts 120°
2026-04-14 03:08 36.24988 28.45907 7168 ft 283 kts 120°
2026-04-14 03:08 36.24014 28.48078 7170 ft 285 kts 120°
2026-04-14 03:08 36.23068 28.50239 7174 ft 285 kts 115°
2026-04-14 03:09 36.22451 28.52525 7175 ft 277 kts 106°
2026-04-14 03:09 36.21957 28.54808 7174 ft 273 kts 105°
2026-04-14 03:09 36.21456 28.57071 7179 ft 271 kts 107°
2026-04-14 03:09 36.20903 28.59295 7178 ft 271 kts 108°
2026-04-14 03:10 36.20321 28.61481 7180 ft 270 kts 109°
2026-04-14 03:10 36.19740 28.63693 7184 ft 270 kts 108°
2026-04-14 03:10 36.19165 28.65906 7183 ft 270 kts 108°
2026-04-14 03:10 36.18587 28.68118 7182 ft 270 kts 108°
2026-04-14 03:11 36.18007 28.70334 7184 ft 271 kts 108°
2026-04-14 03:11 36.17429 28.72553 7184 ft 271 kts 108°
2026-04-14 03:11 36.16847 28.74773 7183 ft 271 kts 108°
2026-04-14 03:11 36.16264 28.76996 7187 ft 271 kts 108°
2026-04-14 03:12 36.15684 28.79214 7189 ft 271 kts 108°
2026-04-14 03:12 36.15103 28.81427 7186 ft 271 kts 108°
2026-04-14 03:12 36.14518 28.83654 7191 ft 272 kts 108°
2026-04-14 03:12 36.13936 28.85875 7195 ft 272 kts 108°
2026-04-14 03:13 36.13351 28.88099 7195 ft 272 kts 108°
2026-04-14 03:13 36.12766 28.90320 7198 ft 272 kts 109°
2026-04-14 03:13 36.12182 28.92538 7200 ft 272 kts 108°
2026-04-14 03:13 36.11597 28.94758 7195 ft 272 kts 109°
2026-04-14 03:14 36.11010 28.96981 7200 ft 272 kts 108°
2026-04-14 03:14 36.10425 28.99202 7201 ft 272 kts 108°
2026-04-14 03:14 36.09837 29.01419 7202 ft 272 kts 108°
2026-04-14 03:14 36.09248 29.03649 7200 ft 272 kts 108°
2026-04-14 03:15 36.08662 29.05871 7202 ft 272 kts 109°
2026-04-14 03:15 36.08070 29.08092 7202 ft 272 kts 109°
2026-04-14 03:15 36.07482 29.10315 7200 ft 272 kts 109°
2026-04-14 03:15 36.06893 29.12536 7205 ft 272 kts 109°
2026-04-14 03:16 36.06301 29.14756 7205 ft 272 kts 109°
2026-04-14 03:16 36.05713 29.16971 7203 ft 270 kts 109°
2026-04-14 03:16 36.05127 29.19179 7031 ft 274 kts 109°
2026-04-14 03:16 36.04519 29.21429 6678 ft 275 kts 109°
2026-04-14 03:17 36.03901 29.23664 6301 ft 275 kts 109°
2026-04-14 03:17 36.02875 29.28077 5550 ft 264 kts 98°
2026-04-14 03:17 36.02645 29.30298 5184 ft 258 kts 97°
2026-04-14 03:18 36.02455 29.32483 4803 ft 252 kts 96°
2026-04-14 03:18 36.02402 29.34607 4470 ft 242 kts 82°
2026-04-14 03:18 36.02751 29.36601 4218 ft 235 kts 77°
2026-04-14 03:18 36.03141 29.38544 3966 ft 231 kts 76°
2026-04-14 03:19 36.03544 29.40450 3717 ft 227 kts 76°
2026-04-14 03:19 36.03991 29.42291 3469 ft 220 kts 65°
2026-04-14 03:19 36.04787 29.43872 3217 ft 215 kts 57°
2026-04-14 03:19 36.05625 29.45401 2963 ft 214 kts 56°
2026-04-14 03:20 36.06469 29.46910 2715 ft 213 kts 56°
2026-04-14 03:20 36.07311 29.48399 2544 ft 209 kts 56°
2026-04-14 03:20 36.08129 29.49837 2394 ft 201 kts 55°
2026-04-14 03:20 36.08925 29.51230 2241 ft 195 kts 55°
2026-04-14 03:21 36.09704 29.52585 2038 ft 191 kts 55°
2026-04-14 03:21 36.10419 29.53833 1812 ft 163 kts 55°
2026-04-14 03:21 36.11010 29.54903 1558 ft 138 kts 61°
2026-04-14 03:21 36.11442 29.55783 1327 ft 108 kts 40°
2026-04-14 03:22 36.11856 29.56473 1097 ft 106 kts 65°
2026-04-14 03:22 36.12186 29.57305 1003 ft 105 kts 65°
2026-04-14 03:22 36.12601 29.58103 836 ft 112 kts 49°
2026-04-14 03:22 36.13221 29.58431 712 ft 98 kts 344°
2026-04-14 03:23 36.13815 29.58020 489 ft 95 kts 317°
2026-04-14 03:23 36.14177 29.57627 473 ft 26 kts 317°
2026-04-14 03:23 36.14304 29.57484 485 ft 20 kts 318°
2026-04-14 03:23 36.14345 29.57431 488 ft 3 kts 306°
2026-04-14 03:24 36.14390 29.57370 488 ft 9 kts 288°
2026-04-14 03:24 36.14408 29.57350 491 ft 2 kts 62°
2026-04-14 03:24 36.14389 29.57384 487 ft 8 kts 136°
2026-04-14 03:24 36.14339 29.57441 483 ft 11 kts 138°
2026-04-14 03:25 36.14277 29.57511 484 ft 12 kts 137°
2026-04-14 03:25 36.14212 29.57586 481 ft 13 kts 136°
2026-04-14 03:25 36.14167 29.57653 474 ft 10 kts 98°
2026-04-14 03:25 36.14171 29.57710 477 ft 3 kts 90°
2026-04-14 03:26 36.14176 29.57726 478 ft 2 kts 30°
2026-04-14 03:26 36.14193 29.57725 478 ft 3 kts 332°
2026-04-14 03:26 36.14195 29.57703 478 ft 2 kts 250°
2026-04-14 03:26 36.14189 29.57690 477 ft 1 kts 233°
2026-04-14 03:27 36.14187 29.57687 477 ft 0 kts 233°